| time (UTC) | temp F | wind direction | speed knots | gust knots | rain 1hr in | rain 24hr in | rain mn in | humidity % | barometer mb |
| 20260508100355 | 49 | 221 | 2.6 | 6.1 | 0.00 | 0.00 | 0.00 | 81 | 1018.7 |
| 20260508094837 | 49 | 217 | 2.6 | 8.7 | 0.00 | 0.00 | 0.00 | 80 | 1018.5 |
| 20260508093322 | 49 | 180 | 4.3 | 7.8 | 0.00 | 0.00 | 0.00 | 80 | 1018.1 |
| 20260508091850 | 50 | 192 | 2.6 | 5.2 | 0.00 | 0.00 | 0.00 | 78 | 1018.1 |
| 20260508090338 | 51 | 196 | 0.9 | 3.5 | 0.00 | 0.00 | 0.00 | 77 | 1018.0 |
| 20260508084825 | 51 | 225 | 0.0 | 2.6 | 0.00 | 0.00 | 0.00 | 78 | 1018.0 |
| 20260508083334 | 51 | 233 | 2.6 | 7.0 | 0.00 | 0.00 | 0.00 | 78 | 1018.0 |
| 20260508081821 | 52 | 229 | 3.5 | 6.1 | 0.00 | 0.00 | 0.00 | 75 | 1017.7 |
| 20260508080328 | 52 | 206 | 3.5 | 6.1 | 0.00 | 0.00 | 0.00 | 73 | 1017.7 |
| 20260508074824 | 52 | 206 | 3.5 | 6.1 | 0.00 | 0.00 | 0.00 | 68 | 1017.8 |
| 20260508073349 | 53 | 230 | 0.9 | 4.3 | 0.00 | 0.00 | 0.00 | 64 | 1017.7 |
| 20260508071854 | 53 | 223 | 1.7 | 3.5 | 0.00 | 0.00 | 0.00 | 67 | 1017.5 |
| 20260508070322 | 53 | 237 | 1.7 | 6.1 | 0.00 | 0.00 | 0.00 | 68 | 1017.5 |
| 20260508064828 | 54 | 222 | 5.2 | 7.8 | 0.00 | 0.00 | 0.00 | 72 | 1017.4 |
| 20260508063337 | 54 | 211 | 3.5 | 5.2 | 0.00 | 0.00 | 0.00 | 74 | 1017.4 |
| 20260508061826 | 55 | 222 | 4.3 | 6.1 | 0.00 | 0.00 | 0.00 | 72 | 1017.4 |
| 20260508060335 | 55 | 226 | 4.3 | 7.8 | 0.00 | 0.00 | 0.00 | 71 | 1017.4 |
| 20260508054826 | 55 | 199 | 4.3 | 7.8 | 0.00 | 0.00 | 0.00 | 71 | 1017.5 |
| 20260508053336 | 56 | 222 | 6.1 | 8.7 | 0.00 | 0.00 | 0.00 | 70 | 1017.3 |
| 20260508051826 | 56 | 231 | 6.1 | 7.8 | 0.00 | 0.00 | 0.00 | 69 | 1017.4 |
| 20260508050350 | 57 | 213 | 3.5 | 7.8 | 0.00 | 0.00 | 0.00 | 68 | 1017.4 |
| 20260508044838 | 57 | 230 | 4.3 | 9.6 | 0.00 | 0.00 | 0.00 | 67 | 1017.2 |
| 20260508043326 | 58 | 213 | 7.0 | 12.2 | 0.00 | 0.00 | 0.00 | 66 | 1017.2 |
| 20260508041852 | 58 | 229 | 7.0 | 10.4 | 0.00 | 0.00 | 0.00 | 64 | 1017.1 |
| 20260508040319 | 59 | 243 | 4.3 | 8.7 | 0.00 | 0.00 | 0.00 | 62 | 1016.9 |
| 20260508034829 | 60 | 235 | 5.2 | 8.7 | 0.00 | 0.00 | 0.00 | 62 | 1016.9 |
| 20260508033318 | 61 | 233 | 5.2 | 9.6 | 0.00 | 0.00 | 0.00 | 62 | 1016.7 |
| 20260508031827 | 62 | 231 | 4.3 | 9.6 | 0.00 | 0.00 | 0.00 | 63 | 1016.5 |
| 20260508030332 | 63 | 246 | 4.3 | 8.7 | 0.00 | 0.00 | 0.00 | 63 | 1016.5 |
| 20260508024821 | 65 | 247 | 4.3 | 7.8 | 0.00 | 0.00 | 0.00 | 61 | 1016.5 |
| 20260508023326 | 68 | 240 | 3.5 | 7.8 | 0.00 | 0.00 | 0.00 | 59 | 1016.6 |
| 20260508021833 | 70 | 260 | 1.7 | 2.6 | 0.00 | 0.00 | 0.00 | 59 | 1016.6 |
| 20260508020323 | 71 | 260 | 1.7 | 2.6 | 0.00 | 0.00 | 0.00 | 54 | 1016.5 |
| 20260508014828 | 72 | 233 | 0.9 | 3.5 | 0.00 | 0.00 | 0.00 | 52 | 1016.4 |
| 20260508013335 | 71 | 229 | 2.6 | 3.5 | 0.00 | 0.00 | 0.00 | 54 | 1016.6 |
| 20260508011823 | 70 | 339 | 0.9 | 2.6 | 0.00 | 0.00 | 0.00 | 53 | 1016.9 |
| 20260508010334 | 71 | 329 | 1.7 | 5.2 | 0.00 | 0.00 | 0.00 | 52 | 1016.9 |
| 20260508004822 | 72 | 7 | 1.7 | 6.1 | 0.00 | 0.00 | 0.00 | 50 | 1017.0 |
| 20260508003326 | 73 | 325 | 1.7 | 4.3 | 0.00 | 0.00 | 0.00 | 49 | 1017.1 |
| 20260508001859 | 72 | 331 | 0.9 | 1.7 | 0.00 | 0.00 | 0.00 | 51 | 1017.2 |
| 20260508000323 | 71 | 342 | 1.7 | 7.0 | 0.00 | 0.00 | 0.00 | 51 | 1017.3 |
| 20260507234847 | 72 | 310 | 1.7 | 4.3 | 0.00 | 0.00 | 0.00 | 49 | 1017.3 |
| 20260507233335 | 71 | 358 | 1.7 | 7.0 | 0.00 | 0.00 | 0.00 | 53 | 1017.5 |
| 20260507231842 | 72 | 3 | 0.9 | 7.0 | 0.00 | 0.00 | 0.00 | 50 | 1017.7 |
| 20260507230324 | 73 | 335 | 1.7 | 5.2 | 0.00 | 0.00 | 0.00 | 51 | 1017.9 |
| 20260507224852 | 71 | 301 | 1.7 | 3.5 | 0.00 | 0.00 | 0.00 | 53 | 1018.1 |
| 20260507223359 | 71 | 28 | 1.7 | 3.5 | 0.00 | 0.00 | 0.00 | 51 | 1018.3 |
| 20260507221822 | 73 | 122 | 1.7 | 6.1 | 0.00 | 0.00 | 0.00 | 50 | 1018.4 |
| 20260507220329 | 72 | 26 | 0.9 | 4.3 | 0.00 | 0.00 | 0.00 | 51 | 1018.6 |
| 20260507214814 | 70 | 217 | 1.7 | 3.5 | 0.00 | 0.00 | 0.00 | 53 | 1018.8 |
| 20260507213329 | 69 | 306 | 0.9 | 7.0 | 0.00 | 0.00 | 0.00 | 55 | 1018.8 |
| 20260507211838 | 70 | 326 | 1.7 | 7.0 | 0.00 | 0.00 | 0.00 | 54 | 1019.0 |
| 20260507210343 | 70 | 340 | 1.7 | 7.0 | 0.00 | 0.00 | 0.00 | 57 | 1019.1 |
| 20260507204827 | 69 | 212 | 2.6 | 6.1 | 0.00 | 0.00 | 0.00 | 59 | 1019.4 |
| 20260507203349 | 68 | 236 | 2.6 | 6.1 | 0.00 | 0.00 | 0.00 | 62 | 1019.6 |
| 20260507201817 | 67 | 10 | 3.5 | 7.0 | 0.00 | 0.00 | 0.00 | 62 | 1019.7 |
| 20260507200342 | 66 | 39 | 1.7 | 6.1 | 0.00 | 0.00 | 0.00 | 59 | 1019.8 |
| 20260507194824 | 65 | 328 | 3.5 | 8.7 | 0.00 | 0.00 | 0.00 | 66 | 1020.1 |
| 20260507193332 | 64 | 43 | 1.7 | 6.1 | 0.00 | 0.00 | 0.00 | 67 | 1020.1 |
| 20260507191834 | 63 | 317 | 0.9 | 3.5 | 0.00 | 0.00 | 0.00 | 70 | 1020.2 |
| 20260507190347 | 62 | 215 | 1.7 | 4.3 | 0.00 | 0.00 | 0.00 | 65 | 1020.4 |
| 20260507184832 | 60 | 227 | 0.9 | 3.5 | 0.00 | 0.00 | 0.00 | 72 | 1020.5 |
| 20260507183347 | 60 | 327 | 2.6 | 5.2 | 0.00 | 0.00 | 0.00 | 70 | 1020.5 |
| 20260507181853 | 60 | 310 | 0.9 | 6.1 | 0.00 | 0.00 | 0.00 | 73 | 1020.7 |
| 20260507180353 | 59 | 346 | 2.6 | 7.0 | 0.00 | 0.00 | 0.00 | 76 | 1020.8 |
| 20260507174823 | 58 | 354 | 2.6 | 6.1 | 0.00 | 0.00 | 0.00 | 75 | 1020.9 |
| 20260507173333 | 58 | 327 | 4.3 | 7.0 | 0.00 | 0.00 | 0.00 | 73 | 1020.9 |
| 20260507171842 | 58 | 337 | 2.6 | 7.8 | 0.00 | 0.00 | 0.00 | 75 | 1020.9 |
| 20260507170321 | 57 | 326 | 3.5 | 7.0 | 0.00 | 0.00 | 0.00 | 78 | 1020.9 |
| 20260507164826 | 56 | 324 | 1.7 | 4.3 | 0.00 | 0.00 | 0.00 | 79 | 1020.9 |
| 20260507163352 | 55 | 320 | 3.5 | 7.0 | 0.00 | 0.00 | 0.00 | 79 | 1020.9 |
| 20260507161840 | 55 | 353 | 3.5 | 8.7 | 0.00 | 0.00 | 0.00 | 80 | 1021.0 |
| 20260507160355 | 55 | 358 | 3.5 | 7.0 | 0.00 | 0.00 | 0.00 | 80 | 1020.9 |
| 20260507154838 | 54 | 341 | 4.3 | 7.0 | 0.00 | 0.00 | 0.00 | 81 | 1020.9 |
| 20260507153324 | 53 | 318 | 1.7 | 6.1 | 0.00 | 0.00 | 0.00 | 83 | 1021.0 |
| 20260507151814 | 53 | 328 | 4.3 | 7.8 | 0.00 | 0.00 | 0.00 | 84 | 1021.1 |
| 20260507150326 | 53 | 311 | 0.9 | 5.2 | 0.00 | 0.00 | 0.00 | 85 | 1021.1 |
| 20260507144814 | 53 | 322 | 2.6 | 5.2 | 0.00 | 0.00 | 0.00 | 87 | 1021.1 |
| 20260507143345 | 52 | 319 | 2.6 | 4.3 | 0.00 | 0.00 | 0.00 | 87 | 1021.0 |
| 20260507141830 | 52 | 319 | 2.6 | 4.3 | 0.00 | 0.00 | 0.00 | 89 | 1020.9 |
| 20260507140321 | 52 | 320 | 0.9 | 2.6 | 0.00 | 0.00 | 0.00 | 89 | 1020.7 |
| 20260507134835 | 52 | 320 | 0.0 | 2.6 | 0.00 | 0.00 | 0.00 | 89 | 1020.6 |
| 20260507133344 | 52 | 320 | 0.0 | 1.7 | 0.00 | 0.00 | 0.00 | 89 | 1020.5 |
| 20260507131830 | 52 | 320 | 1.7 | 2.6 | 0.00 | 0.00 | 0.00 | 89 | 1020.6 |
| 20260507130319 | 52 | 320 | 0.0 | 1.7 | 0.00 | 0.00 | 0.00 | 89 | 1020.8 |
| 20260507124826 | 52 | 320 | 0.9 | 2.6 | 0.00 | 0.00 | 0.00 | 89 | 1020.7 |
| 20260507123354 | 52 | 320 | 0.0 | 2.6 | 0.00 | 0.00 | 0.00 | 89 | 1020.8 |
| 20260507121821 | 52 | 320 | 1.7 | 2.6 | 0.00 | 0.00 | 0.00 | 88 | 1020.8 |
| 20260507120350 | 52 | 320 | 0.9 | 2.6 | 0.00 | 0.00 | 0.00 | 88 | 1020.9 |
| 20260507114857 | 52 | 321 | 1.7 | 3.5 | 0.00 | 0.00 | 0.00 | 88 | 1021.0 |
| 20260507113341 | 52 | 315 | 1.7 | 2.6 | 0.00 | 0.00 | 0.00 | 88 | 1021.1 |
| 20260507111835 | 52 | 311 | 0.9 | 3.5 | 0.00 | 0.00 | 0.00 | 88 | 1021.2 |
| 20260507110356 | 52 | 288 | 0.9 | 3.5 | 0.00 | 0.00 | 0.00 | 88 | 1021.1 |
| 20260507104823 | 52 | 261 | 0.0 | 2.6 | 0.00 | 0.00 | 0.00 | 88 | 1021.1 |
| 20260507103331 | 52 | 242 | 0.0 | 0.9 | 0.00 | 0.00 | 0.00 | 88 | 1021.3 |
| 20260507101839 | 52 | 242 | 0.9 | 4.3 | 0.00 | 0.00 | 0.00 | 87 | 1021.3 |